ONEWEB-0034, 45454

Orbit data source: Space-Track

ONEWEB-0034, 45454 is a payload satellite owned by One Web (UK) in LEO that was launched on Sat, 21 Mar 2020 UTC via a SOYUZ-2-1B launch vehicle from the Tyuratam Missile And Space Complex (TTMTR). Payload-class satellites include a variety of spacecraft equipped with specific instruments for various scientific and technological missions. These include communications satellites like Starlink; space stations such as the ISS; scientific satellites like the Hubble; Earth observation satellites from companies like Planet Labs, Umbra, and HawkEye 360; GPS; miniature CubeSats for education and research; and military/defense satellites.

Loading next visibility...
Identifier
45454, 2020-020AG
Orbit
LEO
Last TLE update
20 hours ago
Origin
Manufacturer
One Web
Mission
Operational Commercial Communications
Bus & Motor
ARROW, Unknown motor
Mass
148 kg wet, ~140 kg dry
Launch date (UTC)
2020-03-21 (5 years ago)
Launch vehicle
SOYUZ-2-1B
Launch site
Tyuratam Missile And Space Complex (TTMTR)
Object type
Payload
Rocket body
Debris
Shape & HBR
Trap Box + 2 Pan, 5 m
Radar Cross Section
2.957 m², Medium (>0.1 m² and < 1m²)

Expand to show TLE details & history

TLE from 20 hours ago
0 ONEWEB-0034
1 45454U 20020AG  25128.44810810  .00011049  00000-0  31064-1 0  9990
2 45454  87.8809 101.7252 0001635  88.5071 271.6245 13.11503774249550
Epoch: 2025-05-08T10:45Z
Definitive object data (Epoch: 2025-05-08T10:45:16.539Z)
Latitude
0.00003°
Longitude
73.88783°
Altitude
1,220.202 km
Speed
7.244 km/s
True Right ascension
06h 46m 54s
True Declination
0° 00' 00"
Sunlit
Object was in daylight at TLE epoch
Visualization TLE readout
Latitude
-0.52896°
Longitude
73.70085°
Altitude
1,220.163 km
Speed
7.244 km/s
Apparent Right ascension
05h 20m 28s
Apparent Declination
-20° 26' 22"
Sunlit
Object is in daylight
Visualization observer readout
Local Sidereal Time
15:02:28
Azimuth
293.218° NW
Elevation
-54.724°
Doppler factor
1
Orbital elements
Apogee altitude
1,215.707 km
Perigee altitude
1,213.224 km
Semi-major axis
7,592.603 km
Eccentricity
0.0001635
Inclination
87.8809°
RAAN
101.7252°
Arg. of periapsis
88.5071°
True anomaly
271.60577°
Mean anomaly
271.6245°
Eccentric anomaly
271.61514°
Mean motion
3.28063 °/min
BSTAR
0.031064
Orbital period
109.74 mins
Loading maneuver chart data...
Loading SW <> Apogee altitude chart data...
Loading historical data...
Loading historical data...
Loading historical data...
Loading historical data...
Loading historical data...
Loading historical data...
Loading historical data...

ONEWEB-0034 Visibility forecast

Observer location: undefined°, undefined°

Span
Click to sort rows by Start time (UTC) header in descending order
Start Az.
Max El. time (UTC)
Max El. Az.
Max El.
End time (UTC)
End Az.
12 mins2025-05-09 09:19:34.034Z17.971° NNE2025-05-09 09:25:34.034Z73.815° E28.654°2025-05-09 09:31:34.034Z138.365° SSE
12 mins2025-05-09 11:10:34.034Z341.179° N2025-05-09 11:15:34.034Z285.729° WNW34.467°2025-05-09 11:22:34.034Z210.172° SW
12 mins2025-05-09 21:39:34.034Z139.586° SSE2025-05-09 21:44:34.034Z88.522° E30.943°2025-05-09 21:51:34.034Z16.906° NNE
12 mins2025-05-09 23:29:34.034Z217.439° SW2025-05-09 23:34:34.034Z273.63° WNW32.187°2025-05-09 23:41:34.034Z345.573° N
|